Year,Month,Day,Hour,Minute,Value (Times are PST for temperature in C)
2009,05,31,00,00,13.50
2009,05,31,00,05,13.20
2009,05,31,00,06,13.20
2009,05,31,00,07,13.20
2009,05,31,00,08,13.10
2009,05,31,00,09,13.10
2009,05,31,00,10,13.10
2009,05,31,00,11,13.00
2009,05,31,00,12,13.00
2009,05,31,00,13,13.00
2009,05,31,00,14,13.00
2009,05,31,00,15,12.90
2009,05,31,00,16,12.90
2009,05,31,00,17,12.90
2009,05,31,00,18,13.10
2009,05,31,00,19,13.20
2009,05,31,00,20,13.30
2009,05,31,00,21,13.30
2009,05,31,00,22,13.40
2009,05,31,00,23,13.40
2009,05,31,00,24,13.50
2009,05,31,00,25,13.50
2009,05,31,00,26,13.50
2009,05,31,00,27,13.60
2009,05,31,00,28,13.60
2009,05,31,00,29,13.60
2009,05,31,00,30,13.60
2009,05,31,00,31,13.60
2009,05,31,00,32,13.60
2009,05,31,00,33,13.60
2009,05,31,00,34,13.60
2009,05,31,00,35,13.60
2009,05,31,00,36,13.70
2009,05,31,00,37,13.70
2009,05,31,00,38,13.70
2009,05,31,00,39,13.70
2009,05,31,00,40,13.70
2009,05,31,00,41,13.70
2009,05,31,00,42,13.80
2009,05,31,00,43,13.90
2009,05,31,00,44,13.90
2009,05,31,00,45,13.90
2009,05,31,00,46,14.00
2009,05,31,00,47,14.00
2009,05,31,00,48,14.00
2009,05,31,00,49,13.90
2009,05,31,00,50,13.90
2009,05,31,00,51,13.90
2009,05,31,00,52,13.80
2009,05,31,00,53,13.80
2009,05,31,00,54,13.80
2009,05,31,00,55,13.70
2009,05,31,00,56,13.70
2009,05,31,00,57,13.60
2009,05,31,00,58,13.60
2009,05,31,00,59,13.50
2009,05,31,01,00,13.50
2009,05,31,01,01,13.40
2009,05,31,01,02,13.30
2009,05,31,01,03,13.30
2009,05,31,01,04,13.30
2009,05,31,01,05,13.20
2009,05,31,01,06,13.20
2009,05,31,01,07,13.20
2009,05,31,01,08,13.10
2009,05,31,01,09,13.10
2009,05,31,01,10,13.00
2009,05,31,01,11,12.90
2009,05,31,01,12,12.90
2009,05,31,01,13,12.90
2009,05,31,01,14,12.80
2009,05,31,01,15,12.80
2009,05,31,01,16,12.80
2009,05,31,01,17,12.70
2009,05,31,01,18,12.70
2009,05,31,01,19,12.70
2009,05,31,01,20,12.60
2009,05,31,01,21,12.60
2009,05,31,01,22,12.50
2009,05,31,01,23,12.50
2009,05,31,01,24,12.40
2009,05,31,01,25,12.40
2009,05,31,01,26,12.30
2009,05,31,01,27,12.20
2009,05,31,01,28,12.20
2009,05,31,01,29,12.20
2009,05,31,01,30,12.20
2009,05,31,01,31,12.20
2009,05,31,01,32,12.20
2009,05,31,01,33,12.20
2009,05,31,01,34,12.20
2009,05,31,01,35,12.10
2009,05,31,01,36,12.10
2009,05,31,01,37,12.00
2009,05,31,01,38,11.90
2009,05,31,01,39,11.90
2009,05,31,01,40,11.90
2009,05,31,01,41,11.90
2009,05,31,01,42,12.00
2009,05,31,01,43,12.00
2009,05,31,01,44,12.00
2009,05,31,01,45,12.10
2009,05,31,01,46,12.10
2009,05,31,01,47,12.10
2009,05,31,01,48,12.10
2009,05,31,01,49,12.10
2009,05,31,01,50,12.10
2009,05,31,01,51,12.10
2009,05,31,01,52,12.10
2009,05,31,01,53,12.10
2009,05,31,01,54,12.10
2009,05,31,01,55,12.10
2009,05,31,01,56,12.00
2009,05,31,01,57,12.00
2009,05,31,01,58,11.90
2009,05,31,01,59,11.90
2009,05,31,02,00,11.80
2009,05,31,02,01,11.80
2009,05,31,02,02,11.70
2009,05,31,02,03,11.70
2009,05,31,02,04,11.60
2009,05,31,02,05,11.60
2009,05,31,02,06,11.60
2009,05,31,02,07,11.50
2009,05,31,02,08,11.40
2009,05,31,02,09,11.40
2009,05,31,02,10,11.40
2009,05,31,02,11,11.30
2009,05,31,02,12,11.30
2009,05,31,02,13,11.30
2009,05,31,02,14,11.30
2009,05,31,02,15,11.30
2009,05,31,02,16,11.40
2009,05,31,02,17,11.30
2009,05,31,02,18,11.40
2009,05,31,02,19,11.40
2009,05,31,02,20,11.40
2009,05,31,02,21,11.40
2009,05,31,02,22,11.40
2009,05,31,02,23,11.40
2009,05,31,02,24,11.40
2009,05,31,02,25,11.30
2009,05,31,02,26,11.30
2009,05,31,02,27,11.30
2009,05,31,02,28,11.20
2009,05,31,02,29,11.20
2009,05,31,02,30,11.20
2009,05,31,02,31,11.20
2009,05,31,02,32,11.20
2009,05,31,02,33,11.20
2009,05,31,02,34,11.10
2009,05,31,02,35,11.10
2009,05,31,02,36,11.10
2009,05,31,02,37,11.00
2009,05,31,02,38,11.00
2009,05,31,02,39,11.10
2009,05,31,02,40,11.10
2009,05,31,02,41,11.10
2009,05,31,02,42,11.10
2009,05,31,02,43,11.10
2009,05,31,02,44,11.10
2009,05,31,02,45,11.00
2009,05,31,02,46,11.00
2009,05,31,02,47,11.00
2009,05,31,02,48,11.00
2009,05,31,02,49,10.90
2009,05,31,02,50,11.00
2009,05,31,02,51,10.90
2009,05,31,02,52,11.00
2009,05,31,02,53,11.00
2009,05,31,02,54,11.00
2009,05,31,02,55,11.00
2009,05,31,02,56,11.00
2009,05,31,02,57,11.00
2009,05,31,02,58,11.00
2009,05,31,02,59,11.00
2009,05,31,03,00,11.00
2009,05,31,03,01,11.00
2009,05,31,03,02,11.10
2009,05,31,03,03,11.10
2009,05,31,03,04,11.10
2009,05,31,03,05,11.10
2009,05,31,03,06,11.10
2009,05,31,03,07,11.10
2009,05,31,03,08,11.10
2009,05,31,03,09,11.10
2009,05,31,03,10,11.10
2009,05,31,03,11,11.10
2009,05,31,03,12,11.00
2009,05,31,03,13,11.00
2009,05,31,03,14,11.00
2009,05,31,03,15,11.00
2009,05,31,03,16,10.90
2009,05,31,03,17,10.90
2009,05,31,03,18,10.90
2009,05,31,03,19,10.90
2009,05,31,03,20,11.00
2009,05,31,03,21,11.00
2009,05,31,03,22,11.00
2009,05,31,03,23,11.00
2009,05,31,03,24,11.10
2009,05,31,03,25,11.10
2009,05,31,03,26,11.10
2009,05,31,03,27,11.10
2009,05,31,03,28,11.10
2009,05,31,03,29,11.10
2009,05,31,03,30,11.10
2009,05,31,03,31,11.10
2009,05,31,03,32,11.20
2009,05,31,03,33,11.10
2009,05,31,03,34,11.10
2009,05,31,03,35,11.10
2009,05,31,03,36,11.10
2009,05,31,03,37,11.10
2009,05,31,03,38,11.10
2009,05,31,03,39,11.20
2009,05,31,03,40,11.10
2009,05,31,03,41,11.10
2009,05,31,03,42,11.10
2009,05,31,03,43,11.10
2009,05,31,03,44,11.10
2009,05,31,03,45,11.00
2009,05,31,03,46,11.00
2009,05,31,03,47,11.00
2009,05,31,03,48,11.00
2009,05,31,03,49,11.00
2009,05,31,03,50,10.90
2009,05,31,03,51,10.90
2009,05,31,03,52,10.90
2009,05,31,03,53,10.80
2009,05,31,03,54,10.70
2009,05,31,03,55,10.70
2009,05,31,03,56,10.60
2009,05,31,03,57,10.60
2009,05,31,03,58,10.60
2009,05,31,03,59,10.50
2009,05,31,04,00,10.50
2009,05,31,04,01,10.40
2009,05,31,04,02,10.40
2009,05,31,04,03,10.40
2009,05,31,04,04,10.40
2009,05,31,04,05,10.40
2009,05,31,04,06,10.40
2009,05,31,04,07,10.40
2009,05,31,04,08,10.40
2009,05,31,04,09,10.40
2009,05,31,04,10,10.50
2009,05,31,04,11,10.50
2009,05,31,04,12,10.50
2009,05,31,04,13,10.50
2009,05,31,04,14,10.50
2009,05,31,04,15,10.50
2009,05,31,04,16,10.50
2009,05,31,04,17,10.50
2009,05,31,04,18,10.50
2009,05,31,04,19,10.50
2009,05,31,04,20,10.50
2009,05,31,04,21,10.50
2009,05,31,04,22,10.50
2009,05,31,04,23,10.50
2009,05,31,04,24,10.50
2009,05,31,04,25,10.50
2009,05,31,04,26,10.50
2009,05,31,04,27,10.40
2009,05,31,04,28,10.40
2009,05,31,04,29,10.40
2009,05,31,04,30,10.40
2009,05,31,04,31,10.40
2009,05,31,04,32,10.40
2009,05,31,04,33,10.40
2009,05,31,04,34,10.40
2009,05,31,04,35,10.40
2009,05,31,04,36,10.40
2009,05,31,04,37,10.40
2009,05,31,04,38,10.40
2009,05,31,04,39,10.40
2009,05,31,04,40,10.40
2009,05,31,04,41,10.40
2009,05,31,04,42,10.30
2009,05,31,04,43,10.30
2009,05,31,04,44,10.30
2009,05,31,04,45,10.30
2009,05,31,04,46,10.20
2009,05,31,04,47,10.20
2009,05,31,04,48,10.20
2009,05,31,04,49,10.10
2009,05,31,04,50,10.10
2009,05,31,04,51,10.00
2009,05,31,04,52,10.00
2009,05,31,04,53,10.00
2009,05,31,04,54,10.00
2009,05,31,04,55,10.00
2009,05,31,04,56,10.00
2009,05,31,04,57,10.00
2009,05,31,04,58,10.00
2009,05,31,04,59,10.00
2009,05,31,05,00,10.00
2009,05,31,05,01,10.00
2009,05,31,05,02,10.00
2009,05,31,05,03,10.00
2009,05,31,05,04,10.00
2009,05,31,05,05,10.00
2009,05,31,05,06,9.90
2009,05,31,05,07,9.90
2009,05,31,05,08,9.90
2009,05,31,05,09,9.90
2009,05,31,05,10,9.90
2009,05,31,05,11,9.90
2009,05,31,05,12,9.90
2009,05,31,05,13,9.90
2009,05,31,05,14,9.80
2009,05,31,05,15,9.80
2009,05,31,05,16,9.80
2009,05,31,05,17,9.80
2009,05,31,05,18,9.80
2009,05,31,05,19,9.80
2009,05,31,05,20,9.80
2009,05,31,05,21,9.80
2009,05,31,05,22,9.80
2009,05,31,05,23,9.80
2009,05,31,05,24,9.80
2009,05,31,05,25,9.80
2009,05,31,05,26,9.80
2009,05,31,05,27,9.80
2009,05,31,05,28,9.70
2009,05,31,05,29,9.70
2009,05,31,05,30,9.70
2009,05,31,05,31,9.70
2009,05,31,05,32,9.70
2009,05,31,05,33,9.70
2009,05,31,05,34,9.70
2009,05,31,05,35,9.70
2009,05,31,05,36,9.70
2009,05,31,05,37,9.70
2009,05,31,05,38,9.60
2009,05,31,05,39,9.60
2009,05,31,05,40,9.60
2009,05,31,05,41,9.60
2009,05,31,05,42,9.60
2009,05,31,05,43,9.60
2009,05,31,05,44,9.60
2009,05,31,05,45,9.60
2009,05,31,05,46,9.60
2009,05,31,05,47,9.60
2009,05,31,05,48,9.60
2009,05,31,05,49,9.60
2009,05,31,05,50,9.60
2009,05,31,05,51,9.60
2009,05,31,05,52,9.70
2009,05,31,05,53,9.70
2009,05,31,05,54,9.80
2009,05,31,05,55,9.90
2009,05,31,05,56,9.90
2009,05,31,05,57,10.00
2009,05,31,05,58,10.10
2009,05,31,05,59,10.10
2009,05,31,06,00,10.20
2009,05,31,06,01,10.20
2009,05,31,06,02,10.30
2009,05,31,06,03,10.30
2009,05,31,06,04,10.40
2009,05,31,06,05,10.40
2009,05,31,06,06,10.50
2009,05,31,06,07,10.50
2009,05,31,06,08,10.60
2009,05,31,06,09,10.60
2009,05,31,06,10,10.60
2009,05,31,06,11,10.60
2009,05,31,06,12,10.60
2009,05,31,06,13,10.60
2009,05,31,06,14,10.60
2009,05,31,06,15,10.60
2009,05,31,06,16,10.60
2009,05,31,06,17,10.60
2009,05,31,06,18,10.60
2009,05,31,06,19,10.60
2009,05,31,06,20,10.60
2009,05,31,06,21,10.60
2009,05,31,06,22,10.60
2009,05,31,06,23,10.60
2009,05,31,06,24,10.60
2009,05,31,06,25,10.60
2009,05,31,06,26,10.60
2009,05,31,06,27,10.60
2009,05,31,06,28,10.60
2009,05,31,06,29,10.60
2009,05,31,06,30,10.60
2009,05,31,06,31,10.70
2009,05,31,06,32,10.80
2009,05,31,06,33,10.80
2009,05,31,06,34,10.90
2009,05,31,06,35,11.00
2009,05,31,06,36,11.10
2009,05,31,06,37,11.10
2009,05,31,06,38,11.20
2009,05,31,06,39,11.20
2009,05,31,06,40,11.30
2009,05,31,06,41,11.30
2009,05,31,06,42,11.30
2009,05,31,06,43,11.40
2009,05,31,06,44,11.40
2009,05,31,06,45,11.40
2009,05,31,06,46,11.40
2009,05,31,06,47,11.50
2009,05,31,06,48,11.50
2009,05,31,06,49,11.50
2009,05,31,06,50,11.60
2009,05,31,06,51,11.60
2009,05,31,06,52,11.70
2009,05,31,06,53,11.70
2009,05,31,06,54,11.70
2009,05,31,06,55,11.80
2009,05,31,06,56,11.80
2009,05,31,06,57,11.90
2009,05,31,06,58,11.90
2009,05,31,06,59,12.00
2009,05,31,07,00,12.10
2009,05,31,07,01,12.10
2009,05,31,07,02,12.20
2009,05,31,07,03,12.30
2009,05,31,07,04,12.40
2009,05,31,07,05,12.50
2009,05,31,07,06,12.50
2009,05,31,07,07,12.60
2009,05,31,07,08,12.60
2009,05,31,07,09,12.70
2009,05,31,07,10,12.80
2009,05,31,07,11,12.90
2009,05,31,07,12,12.90
2009,05,31,07,13,13.00
2009,05,31,07,14,13.10
2009,05,31,07,15,13.20
2009,05,31,07,16,13.30
2009,05,31,07,17,13.30
2009,05,31,07,18,13.40
2009,05,31,07,19,13.40
2009,05,31,07,20,13.50
2009,05,31,07,21,13.50
2009,05,31,07,22,13.60
2009,05,31,07,23,13.60
2009,05,31,07,24,13.60
2009,05,31,07,25,13.60
2009,05,31,07,26,13.60
2009,05,31,07,27,13.60
2009,05,31,07,28,13.60
2009,05,31,07,29,13.70
2009,05,31,07,30,13.70
2009,05,31,07,31,13.70
2009,05,31,07,32,13.70
2009,05,31,07,33,13.70
2009,05,31,07,34,13.70
2009,05,31,07,35,13.80
2009,05,31,07,36,13.80
2009,05,31,07,37,13.80
2009,05,31,07,38,13.80
2009,05,31,07,39,13.80
2009,05,31,07,40,13.80
2009,05,31,07,41,13.90
2009,05,31,07,42,13.90
2009,05,31,07,43,13.90
2009,05,31,07,44,13.90
2009,05,31,07,45,14.00
2009,05,31,07,46,14.00
2009,05,31,07,47,14.00
2009,05,31,07,48,14.00
2009,05,31,07,49,14.00
2009,05,31,07,50,14.00
2009,05,31,07,51,14.10
2009,05,31,07,52,14.10
2009,05,31,07,53,14.10
2009,05,31,07,54,14.10
2009,05,31,07,55,14.10
2009,05,31,07,56,14.10
2009,05,31,07,57,14.10
2009,05,31,07,58,14.10
2009,05,31,07,59,14.10
2009,05,31,08,00,14.10
2009,05,31,08,01,14.10
2009,05,31,08,02,14.10
2009,05,31,08,03,14.10
2009,05,31,08,04,14.20
2009,05,31,08,05,14.20
2009,05,31,08,06,14.30
2009,05,31,08,07,14.30
2009,05,31,08,08,14.30
2009,05,31,08,09,14.30
2009,05,31,08,10,14.30
2009,05,31,08,11,14.30
2009,05,31,08,12,14.30
2009,05,31,08,13,14.30
2009,05,31,08,14,14.30
2009,05,31,08,15,14.40
2009,05,31,08,16,14.40
2009,05,31,08,17,14.40
2009,05,31,08,18,14.50
2009,05,31,08,19,14.50
2009,05,31,08,20,14.50
2009,05,31,08,21,14.50
2009,05,31,08,22,14.60
2009,05,31,08,23,14.60
2009,05,31,08,24,14.50
2009,05,31,08,25,14.60
2009,05,31,08,26,14.50
2009,05,31,08,27,14.50
2009,05,31,08,28,14.60
2009,05,31,08,29,14.60
2009,05,31,08,30,14.60
2009,05,31,08,31,14.60
2009,05,31,08,32,14.60
2009,05,31,08,33,14.60
2009,05,31,08,34,14.70
2009,05,31,08,35,14.70
2009,05,31,08,36,14.70
2009,05,31,08,37,14.80
2009,05,31,08,38,14.80
2009,05,31,08,39,14.80
2009,05,31,08,40,14.90
2009,05,31,08,41,14.90
2009,05,31,08,42,14.90
2009,05,31,08,43,14.90
2009,05,31,08,44,14.90
2009,05,31,08,45,14.90
2009,05,31,08,46,14.90
2009,05,31,08,47,15.00
2009,05,31,08,48,15.00
2009,05,31,08,49,15.00
2009,05,31,08,50,15.00
2009,05,31,08,51,15.10
2009,05,31,08,52,15.20
2009,05,31,08,53,15.20
2009,05,31,08,54,15.10
2009,05,31,08,55,15.10
2009,05,31,08,56,15.10
2009,05,31,08,57,15.10
2009,05,31,08,58,15.10
2009,05,31,08,59,15.20
2009,05,31,09,00,15.20
2009,05,31,09,01,15.20
2009,05,31,09,02,15.20
2009,05,31,09,03,15.30
2009,05,31,09,04,15.40
2009,05,31,09,05,15.50
2009,05,31,09,06,15.60
2009,05,31,09,07,15.60
2009,05,31,09,08,15.70
2009,05,31,09,09,15.80
2009,05,31,09,10,15.90
2009,05,31,09,11,15.90
2009,05,31,09,12,15.80
2009,05,31,09,13,15.80
2009,05,31,09,14,15.70
2009,05,31,09,15,15.70
2009,05,31,09,16,15.60
2009,05,31,09,17,15.60
2009,05,31,09,18,15.60
2009,05,31,09,19,15.60
2009,05,31,09,20,15.70
2009,05,31,09,21,15.80
2009,05,31,09,22,15.80
2009,05,31,09,23,15.90
2009,05,31,09,24,15.90
2009,05,31,09,25,15.90
2009,05,31,09,26,16.00
2009,05,31,09,27,16.00
2009,05,31,09,28,16.10
2009,05,31,09,29,16.00
2009,05,31,09,30,16.00
2009,05,31,09,31,15.90
2009,05,31,09,32,15.90
2009,05,31,09,33,15.80
2009,05,31,09,34,15.80
2009,05,31,09,35,15.80
2009,05,31,09,36,15.80
2009,05,31,09,37,15.80
2009,05,31,09,38,15.70
2009,05,31,09,39,15.70
2009,05,31,09,40,15.70
2009,05,31,09,41,15.70
2009,05,31,09,42,15.70
2009,05,31,09,43,15.70
2009,05,31,09,44,15.70
2009,05,31,09,45,15.70
2009,05,31,09,46,15.80
2009,05,31,09,47,15.80
2009,05,31,09,48,15.80
2009,05,31,09,49,15.80
2009,05,31,09,50,15.80
2009,05,31,09,51,15.80
2009,05,31,09,52,15.90
2009,05,31,09,53,16.00
2009,05,31,09,54,16.10
2009,05,31,09,55,16.20
2009,05,31,09,56,16.20
2009,05,31,09,57,16.30
2009,05,31,09,58,16.40
2009,05,31,09,59,16.50
2009,05,31,10,00,16.50
2009,05,31,10,01,16.50
2009,05,31,10,02,16.60
2009,05,31,10,03,16.70
2009,05,31,10,04,16.80
2009,05,31,10,05,16.80
2009,05,31,10,06,16.80
2009,05,31,10,07,16.90
2009,05,31,10,08,17.00
2009,05,31,10,09,17.00
2009,05,31,10,10,17.00
2009,05,31,10,11,17.00
2009,05,31,10,12,16.90
2009,05,31,10,13,17.00
2009,05,31,10,14,17.00
2009,05,31,10,15,17.00
2009,05,31,10,16,17.00
2009,05,31,10,17,17.00
2009,05,31,10,18,17.00
2009,05,31,10,19,17.10
2009,05,31,10,20,17.10
2009,05,31,10,21,17.10
2009,05,31,10,22,17.00
2009,05,31,10,23,17.00
2009,05,31,10,24,17.00
2009,05,31,10,25,17.00
2009,05,31,10,26,17.00
2009,05,31,10,27,17.00
2009,05,31,10,28,17.00
2009,05,31,10,29,16.90
2009,05,31,10,30,16.90
2009,05,31,10,31,16.90
2009,05,31,10,32,16.80
2009,05,31,10,33,16.80
2009,05,31,10,34,16.70
2009,05,31,10,35,16.70
2009,05,31,10,36,16.80
2009,05,31,10,37,16.80
2009,05,31,10,38,16.80
2009,05,31,10,39,16.90
2009,05,31,10,40,16.90
2009,05,31,10,41,16.90
2009,05,31,10,42,16.90
2009,05,31,10,43,16.90
2009,05,31,10,44,17.00
2009,05,31,10,45,17.10
2009,05,31,10,46,17.10
2009,05,31,10,47,17.20
2009,05,31,10,48,17.30
2009,05,31,10,49,17.40
2009,05,31,10,50,17.50
2009,05,31,10,51,17.50
2009,05,31,10,52,17.40
2009,05,31,10,53,17.40
2009,05,31,10,54,17.40
2009,05,31,10,55,17.30
2009,05,31,10,56,17.40
2009,05,31,10,57,17.40
2009,05,31,10,58,17.40
2009,05,31,10,59,17.40
2009,05,31,11,00,17.40
2009,05,31,11,01,17.30
2009,05,31,11,02,17.20
2009,05,31,11,03,17.20
2009,05,31,11,04,17.20
2009,05,31,11,05,17.20
2009,05,31,11,06,17.20
2009,05,31,11,07,17.30
2009,05,31,11,08,17.20
2009,05,31,11,09,17.10
2009,05,31,11,10,17.10
2009,05,31,11,11,17.00
2009,05,31,11,12,16.90
2009,05,31,11,13,16.90
2009,05,31,11,14,17.00
2009,05,31,11,15,17.10
2009,05,31,11,16,17.10
2009,05,31,11,17,17.20
2009,05,31,11,18,17.30
2009,05,31,11,19,17.40
2009,05,31,11,20,17.50
2009,05,31,11,21,17.60
2009,05,31,11,22,17.60
2009,05,31,11,23,17.60
2009,05,31,11,24,17.60
2009,05,31,11,25,17.50
2009,05,31,11,26,17.50
2009,05,31,11,27,17.50
2009,05,31,11,28,17.40
2009,05,31,11,29,17.40
2009,05,31,11,30,17.40
2009,05,31,11,31,17.50
2009,05,31,11,32,17.60
2009,05,31,11,33,17.60
2009,05,31,11,34,17.70
2009,05,31,11,35,17.80
2009,05,31,11,36,17.90
2009,05,31,11,37,18.00
2009,05,31,11,38,18.20
2009,05,31,11,39,18.30
2009,05,31,11,40,18.30
2009,05,31,11,41,18.30
2009,05,31,11,42,18.20
2009,05,31,11,43,18.20
2009,05,31,11,44,18.20
2009,05,31,11,45,18.20
2009,05,31,11,46,18.20
2009,05,31,11,47,18.20
2009,05,31,11,48,18.10
2009,05,31,11,49,18.10
2009,05,31,11,50,18.10
2009,05,31,11,51,18.10
2009,05,31,11,52,18.10
2009,05,31,11,53,18.20
2009,05,31,11,54,18.20
2009,05,31,11,55,18.30
2009,05,31,11,56,18.20
2009,05,31,11,57,18.20
2009,05,31,11,58,18.20
2009,05,31,11,59,18.20
2009,05,31,12,00,18.20
2009,05,31,12,01,18.20
2009,05,31,12,02,18.30
2009,05,31,12,03,18.30
2009,05,31,12,04,18.20
2009,05,31,12,05,18.30
2009,05,31,12,06,18.30
2009,05,31,12,07,18.30
2009,05,31,12,08,18.30
2009,05,31,12,09,18.30
2009,05,31,12,10,18.30
2009,05,31,12,11,18.30
2009,05,31,12,12,18.40
2009,05,31,12,13,18.50
2009,05,31,12,14,18.50
2009,05,31,12,15,18.50
2009,05,31,12,16,18.50
2009,05,31,12,17,18.40
2009,05,31,12,18,18.40
2009,05,31,12,19,18.50
2009,05,31,12,20,18.50
2009,05,31,12,21,18.40
2009,05,31,12,22,18.40
2009,05,31,12,23,18.50
2009,05,31,12,24,18.50
2009,05,31,12,25,18.60
2009,05,31,12,26,18.70
2009,05,31,12,27,18.80
2009,05,31,12,28,18.70
2009,05,31,12,29,18.70
2009,05,31,12,30,18.60
2009,05,31,12,31,18.60
2009,05,31,12,32,18.70
2009,05,31,12,33,18.70
2009,05,31,12,34,18.70
2009,05,31,12,35,18.60
2009,05,31,12,36,18.60
2009,05,31,12,37,18.50
2009,05,31,12,38,18.60
2009,05,31,12,39,18.70
2009,05,31,12,40,18.80
2009,05,31,12,41,18.90
2009,05,31,12,42,19.10
2009,05,31,12,43,19.30
2009,05,31,12,44,19.30
2009,05,31,12,45,19.30
2009,05,31,12,46,19.30
2009,05,31,12,47,19.30
2009,05,31,12,48,19.30
2009,05,31,12,49,19.20
2009,05,31,12,50,19.20
2009,05,31,12,51,19.20
2009,05,31,12,52,19.20
2009,05,31,12,53,19.20
2009,05,31,12,54,19.30
2009,05,31,12,55,19.30
2009,05,31,12,56,19.40
2009,05,31,12,57,19.50
2009,05,31,12,58,19.50
2009,05,31,12,59,19.50
2009,05,31,13,00,19.60
2009,05,31,13,01,19.60
2009,05,31,13,02,19.60
2009,05,31,13,03,19.70
2009,05,31,13,04,19.90
2009,05,31,13,05,19.90
2009,05,31,13,06,19.80
2009,05,31,13,07,19.70
2009,05,31,13,08,19.70
2009,05,31,13,09,19.70
2009,05,31,13,10,19.70
2009,05,31,13,11,19.80
2009,05,31,13,12,19.80
2009,05,31,13,13,19.90
2009,05,31,13,14,20.00
2009,05,31,13,15,20.10
2009,05,31,13,16,20.10
2009,05,31,13,17,20.20
2009,05,31,13,18,20.20
2009,05,31,13,19,20.30
2009,05,31,13,20,20.30
2009,05,31,13,21,20.30
2009,05,31,13,22,20.40
2009,05,31,13,23,20.40
2009,05,31,13,24,20.30
2009,05,31,13,25,20.20
2009,05,31,13,26,20.10
2009,05,31,13,27,20.00
2009,05,31,13,28,20.00
2009,05,31,13,29,19.90
2009,05,31,13,30,19.90
2009,05,31,13,31,19.80
2009,05,31,13,32,19.80
2009,05,31,13,33,19.80
2009,05,31,13,34,19.80
2009,05,31,13,35,19.90
2009,05,31,13,36,19.90
2009,05,31,13,37,20.00
2009,05,31,13,38,20.10
2009,05,31,13,39,20.20
2009,05,31,13,40,20.20
2009,05,31,13,41,20.30
2009,05,31,13,42,20.30
2009,05,31,13,43,20.40
2009,05,31,13,44,20.50
2009,05,31,13,45,20.60
2009,05,31,13,46,20.60
2009,05,31,13,47,20.60
2009,05,31,13,48,20.60
2009,05,31,13,49,20.60
2009,05,31,13,50,20.70
2009,05,31,13,51,20.80
2009,05,31,13,52,21.00
2009,05,31,13,53,21.10
2009,05,31,13,54,21.20
2009,05,31,13,55,21.20
2009,05,31,13,56,21.10
2009,05,31,13,57,21.10
2009,05,31,13,58,21.10
2009,05,31,13,59,21.00
2009,05,31,14,00,20.90
2009,05,31,14,01,20.80
2009,05,31,14,02,20.80
2009,05,31,14,03,20.80
2009,05,31,14,04,20.80
2009,05,31,14,05,20.80
2009,05,31,14,06,20.80
2009,05,31,14,07,20.80
2009,05,31,14,08,20.80
2009,05,31,14,09,20.90
2009,05,31,14,10,20.90
2009,05,31,14,11,20.90
2009,05,31,14,12,20.90
2009,05,31,14,13,20.90
2009,05,31,14,14,20.90
2009,05,31,14,15,21.00
2009,05,31,14,16,21.10
2009,05,31,14,17,21.20
2009,05,31,14,18,21.40
2009,05,31,14,19,21.50
2009,05,31,14,20,21.50
2009,05,31,14,21,21.50
2009,05,31,14,22,21.40
2009,05,31,14,23,21.50
2009,05,31,14,24,21.50
2009,05,31,14,25,21.60
2009,05,31,14,26,21.70
2009,05,31,14,27,21.70
2009,05,31,14,28,21.70
2009,05,31,14,29,21.80
2009,05,31,14,30,21.80
2009,05,31,14,31,21.80
2009,05,31,14,32,21.80
2009,05,31,14,33,21.80
2009,05,31,14,34,21.80
2009,05,31,14,35,21.90
2009,05,31,14,36,22.00
2009,05,31,14,37,22.10
2009,05,31,14,38,22.10
2009,05,31,14,39,22.10
2009,05,31,14,40,22.10
2009,05,31,14,41,22.10
2009,05,31,14,42,22.20
2009,05,31,14,43,22.20
2009,05,31,14,44,22.20
2009,05,31,14,45,22.30
2009,05,31,14,46,22.30
2009,05,31,14,47,22.40
2009,05,31,14,48,22.40
2009,05,31,14,49,22.50
2009,05,31,14,50,22.50
2009,05,31,14,51,22.50
2009,05,31,14,52,22.50
2009,05,31,14,53,22.40
2009,05,31,14,54,22.30
2009,05,31,14,55,22.20
2009,05,31,14,56,22.20
2009,05,31,14,57,22.10
2009,05,31,14,58,22.10
2009,05,31,14,59,22.00
2009,05,31,15,00,22.00
2009,05,31,15,01,22.00
2009,05,31,15,02,22.00
2009,05,31,15,03,22.00
2009,05,31,15,04,22.00
2009,05,31,15,05,22.00
2009,05,31,15,06,22.10
2009,05,31,15,07,22.10
2009,05,31,15,08,22.30
2009,05,31,15,09,22.40
2009,05,31,15,10,22.50
2009,05,31,15,11,22.60
2009,05,31,15,12,22.60
2009,05,31,15,13,22.70
2009,05,31,15,14,22.70
2009,05,31,15,15,22.70
2009,05,31,15,16,22.60
2009,05,31,15,17,22.60
2009,05,31,15,18,22.50
2009,05,31,15,19,22.40
2009,05,31,15,20,22.30
2009,05,31,15,21,22.30
2009,05,31,15,22,22.20
2009,05,31,15,23,22.10
2009,05,31,15,24,22.00
2009,05,31,15,25,21.90
2009,05,31,15,26,21.90
2009,05,31,15,27,21.80
2009,05,31,15,28,21.80
2009,05,31,15,29,21.90
2009,05,31,15,30,22.00
2009,05,31,15,31,22.20
2009,05,31,15,32,22.30
2009,05,31,15,33,22.50
2009,05,31,15,34,22.60
2009,05,31,15,35,22.60
2009,05,31,15,36,22.60
2009,05,31,15,37,22.60
2009,05,31,15,38,22.60
2009,05,31,15,39,22.60
2009,05,31,15,40,22.70
2009,05,31,15,41,22.70
2009,05,31,15,42,22.80
2009,05,31,15,43,22.80
2009,05,31,15,44,22.90
2009,05,31,15,45,22.90
2009,05,31,15,46,22.90
2009,05,31,15,47,22.90
2009,05,31,15,48,23.00
2009,05,31,15,49,23.00
2009,05,31,15,50,23.00
2009,05,31,15,51,23.00
2009,05,31,15,52,22.90
2009,05,31,15,53,22.80
2009,05,31,15,54,22.80
2009,05,31,15,55,22.80
2009,05,31,15,56,22.70
2009,05,31,15,57,22.60
2009,05,31,15,58,22.50
2009,05,31,15,59,22.50
2009,05,31,16,00,22.60
2009,05,31,16,01,22.60
2009,05,31,16,02,22.70
2009,05,31,16,03,22.90
2009,05,31,16,04,23.10
2009,05,31,16,05,23.30
2009,05,31,16,06,23.40
2009,05,31,16,07,23.40
2009,05,31,16,08,23.40
2009,05,31,16,09,23.50
2009,05,31,16,10,23.60
2009,05,31,16,11,23.60
2009,05,31,16,12,23.60
2009,05,31,16,13,23.70
2009,05,31,16,14,23.80
2009,05,31,16,15,23.80
2009,05,31,16,16,23.80
2009,05,31,16,17,23.60
2009,05,31,16,18,23.50
2009,05,31,16,19,23.50
2009,05,31,16,20,23.50
2009,05,31,16,21,23.40
2009,05,31,16,22,23.30
2009,05,31,16,23,23.30
2009,05,31,16,24,23.30
2009,05,31,16,25,23.30
2009,05,31,16,26,23.20
2009,05,31,16,27,23.10
2009,05,31,16,28,23.10
2009,05,31,16,29,23.10
2009,05,31,16,30,23.00
2009,05,31,16,31,23.00
2009,05,31,16,32,22.90
2009,05,31,16,33,22.90
2009,05,31,16,34,22.90
2009,05,31,16,35,22.90
2009,05,31,16,36,23.00
2009,05,31,16,37,23.10
2009,05,31,16,38,23.10
2009,05,31,16,39,23.20
2009,05,31,16,40,23.30
2009,05,31,16,41,23.30
2009,05,31,16,42,23.40
2009,05,31,16,43,23.30
2009,05,31,16,44,23.10
2009,05,31,16,45,22.80
2009,05,31,16,46,22.60
2009,05,31,16,47,22.50
2009,05,31,16,48,22.30
2009,05,31,16,49,22.20
2009,05,31,16,50,22.00
2009,05,31,16,51,21.90
2009,05,31,16,52,21.80
2009,05,31,16,53,21.90
2009,05,31,16,54,21.90
2009,05,31,16,55,22.00
2009,05,31,16,56,22.10
2009,05,31,16,57,22.20
2009,05,31,16,58,22.40
2009,05,31,16,59,22.60
2009,05,31,17,00,22.80
2009,05,31,17,01,23.00
2009,05,31,17,02,23.10
2009,05,31,17,03,23.20
2009,05,31,17,04,23.30
2009,05,31,17,05,23.30
2009,05,31,17,06,23.30
2009,05,31,17,07,23.30
2009,05,31,17,08,23.20
2009,05,31,17,09,23.30
2009,05,31,17,10,23.30
2009,05,31,17,11,23.30
2009,05,31,17,12,23.40
2009,05,31,17,13,23.40
2009,05,31,17,14,23.50
2009,05,31,17,15,23.60
2009,05,31,17,16,23.60
2009,05,31,17,17,23.60
2009,05,31,17,18,23.70
2009,05,31,17,19,23.80
2009,05,31,17,20,23.80
2009,05,31,17,21,23.80
2009,05,31,17,22,23.80
2009,05,31,17,23,23.90
2009,05,31,17,24,23.90
2009,05,31,17,25,23.90